Вернуться в каталог

STARLINK-31177

АктивенСвязьVLEO
NORAD 58873·PAYLOAD·🇺🇸 United States

Запущен Jan 29, 2024 с Cape Canaveral Space Force Station

Loading…

Ближайшие Пролёты (ближайшие 24 часа)

TLE

СвежийSource: CelesTrak SupGP

Эпоха: Sep 14, 2026, 22:05 UTC

1 58873C 24019W   26257.92062500  .00033046  00000+0  11973-2 0  2578
2 58873  42.9990 259.9717 0001417 264.8631 177.9058 15.27550505    12

Отслеживайте STARLINK-31177 в реальном времени с AllMySat

Download on the App Store